TimeAKST,TemperatureF,Dew PointF,Humidity,Sea Level PressureIn,VisibilityMPH,Wind Direction,Wind SpeedMPH,Gust SpeedMPH,PrecipitationIn,Events,Conditions,WindDirDegrees,DateUTC
12:53 AM,12.0,6.1,77,30.53,10.0,Calm,Calm,-,N/A,,Overcast,0,2013-11-18 09:53:00
1:53 AM,12.0,6.1,77,30.51,10.0,NNW,3.5,-,N/A,,Overcast,340,2013-11-18 10:53:00
2:53 AM,12.0,6.1,77,30.50,10.0,NW,4.6,-,N/A,,Overcast,310,2013-11-18 11:53:00
3:53 AM,12.9,7.0,77,30.49,10.0,Calm,Calm,-,N/A,,Overcast,0,2013-11-18 12:53:00
4:53 AM,14.0,8.1,77,30.48,10.0,Calm,Calm,-,N/A,,Overcast,0,2013-11-18 13:53:00
5:53 AM,14.0,9.0,80,30.47,10.0,Calm,Calm,-,N/A,,Overcast,0,2013-11-18 14:53:00
6:53 AM,15.1,9.0,77,30.45,10.0,NNE,3.5,-,N/A,,Overcast,30,2013-11-18 15:53:00
7:53 AM,12.0,8.1,84,30.58,10.0,North,5.8,-,N/A,,Overcast,350,2013-11-18 16:53:00
8:53 AM,16.0,10.0,77,30.42,10.0,Calm,Calm,-,N/A,,Overcast,0,2013-11-18 17:53:00
9:53 AM,16.0,10.0,77,30.39,10.0,North,4.6,-,N/A,,Overcast,350,2013-11-18 18:53:00
10:53 AM,15.1,10.0,80,30.40,10.0,Calm,Calm,-,N/A,,Overcast,0,2013-11-18 19:53:00
11:53 AM,15.1,8.1,74,30.38,10.0,Calm,Calm,-,N/A,,Overcast,0,2013-11-18 20:53:00
12:53 PM,16.0,8.1,71,30.38,7.0,Calm,Calm,-,N/A,,Overcast,0,2013-11-18 21:53:00
1:53 PM,14.0,8.1,77,30.36,10.0,ESE,6.9,-,N/A,,Overcast,110,2013-11-18 22:53:00
2:53 PM,14.0,7.0,74,30.35,10.0,East,6.9,-,N/A,,Overcast,80,2013-11-18 23:53:00
3:53 PM,15.1,8.1,74,30.33,10.0,East,3.5,-,N/A,,Mostly Cloudy,90,2013-11-19 00:53:00
4:53 PM,16.0,8.1,71,30.31,10.0,Calm,Calm,-,N/A,,Overcast,0,2013-11-19 01:53:00
5:53 PM,12.9,6.1,74,30.30,10.0,Calm,Calm,-,N/A,,Overcast,0,2013-11-19 02:53:00
6:53 PM,9.0,3.9,80,30.28,10.0,NNE,3.5,-,N/A,,Mostly Cloudy,20,2013-11-19 03:53:00
7:53 PM,7.0,3.0,84,30.28,10.0,Calm,Calm,-,N/A,,Mostly Cloudy,0,2013-11-19 04:53:00
8:53 PM,7.0,1.9,80,30.25,10.0,Calm,Calm,-,N/A,,Scattered Clouds,0,2013-11-19 05:53:00
9:53 PM,6.1,1.9,83,30.25,10.0,Calm,Calm,-,N/A,,Scattered Clouds,0,2013-11-19 06:53:00
10:53 PM,3.9,-0.9,80,30.23,10.0,Calm,Calm,-,N/A,,Scattered Clouds,0,2013-11-19 07:53:00
11:53 PM,5.0,-0.0,80,30.24,10.0,Calm,Calm,-,N/A,,Scattered Clouds,0,2013-11-19 08:53:00